Location: Gagetown
(45.7834°N, 66.1486°W)
Time: 20:53:16
(UTC+00:00)

JY1SAT - Visible Passes

Search period start: 19 September 2021 00:00
Search period end: 29 September 2021 00:00
Orbit: 568 x 591 km, 97.7° (Epoch: 19 September)

Date Brightness Start Highest point End Pass type
(mag) Time Alt. Az. Time Alt. Az. Time Alt. Az.
19 Sep ? 01:21:56 15° NNE 01:21:56 15° NNE 01:22:46 10° N visible
20 Sep ? 01:26:49 14° N 01:26:49 14° N 01:27:34 10° N visible
21 Sep ? 01:31:43 14° N 01:31:43 14° N 01:32:21 10° N visible
22 Sep ? 01:36:36 13° N 01:36:36 13° N 01:37:07 10° N visible
23 Sep ? 01:41:29 12° N 01:41:29 12° N 01:41:54 10° N visible
24 Sep ? 01:46:23 12° N 01:46:23 12° N 01:46:39 10° N visible
25 Sep ? 01:51:16 11° N 01:51:16 11° N 01:51:24 10° N visible
